| time (UTC) | temp C | wind direction | speed KPH | gust KPH | rain 1hr cm | rain 24hr cm | rain mn cm | humidity % | barometer mb |
| 20260508073012 | 21 | 159 | 1.6 | 8.0 | 0.00 | 0.00 | 0.00 | 32 | 1010.1 |
| 20260508071509 | 20 | 156 | 3.2 | 12.9 | 0.00 | 0.00 | 0.00 | 33 | 1010.2 |
| 20260508070007 | 20 | 154 | 3.2 | 9.7 | 0.00 | 0.00 | 0.00 | 33 | 1010.3 |
| 20260508064505 | 20 | 205 | 1.6 | 9.7 | 0.00 | 0.00 | 0.00 | 34 | 1010.4 |
| 20260508063103 | 19 | 168 | 1.6 | 8.0 | 0.00 | 0.00 | 0.00 | 36 | 1010.6 |
| 20260508061600 | 18 | 144 | 1.6 | 6.4 | 0.00 | 0.00 | 0.00 | 37 | 1010.6 |
| 20260508060057 | 18 | 166 | 0.0 | 8.0 | 0.00 | 0.00 | 0.00 | 35 | 1010.9 |
| 20260508054602 | 18 | 142 | 0.0 | 6.4 | 0.00 | 0.00 | 0.00 | 35 | 1011.5 |
| 20260508053054 | 18 | 118 | 1.6 | 11.3 | 0.00 | 0.00 | 0.00 | 35 | 1011.2 |
| 20260508051553 | 17 | 141 | 1.6 | 6.4 | 0.00 | 0.00 | 0.00 | 37 | 1011.3 |
| 20260508050044 | 17 | 98 | 0.0 | 0.0 | 0.00 | 0.00 | 0.00 | 37 | 1011.7 |
| 20260508044541 | 16 | 122 | 0.0 | 1.6 | 0.00 | 0.00 | 0.00 | 39 | 1011.9 |
| 20260508043041 | 15 | 132 | 0.0 | 4.8 | 0.00 | 0.00 | 0.00 | 42 | 1011.7 |
| 20260508041532 | 15 | 129 | 0.0 | 3.2 | 0.00 | 0.00 | 0.00 | 43 | 1011.7 |
| 20260508040038 | 14 | 118 | 0.0 | 4.8 | 0.00 | 0.00 | 0.00 | 41 | 1012.0 |
| 20260508034529 | 13 | 103 | 0.0 | 0.0 | 0.00 | 0.00 | 0.00 | 44 | 1012.2 |
| 20260508033025 | 13 | 103 | 0.0 | 0.0 | 0.00 | 0.00 | 0.00 | 45 | 1012.4 |
| 20260508031529 | 12 | 102 | 0.0 | 0.0 | 0.00 | 0.00 | 0.00 | 47 | 1012.4 |
| 20260508030022 | 12 | 102 | 0.0 | 0.0 | 0.00 | 0.00 | 0.00 | 51 | 1012.5 |
| 20260508024532 | 11 | 102 | 0.0 | 0.0 | 0.00 | 0.00 | 0.00 | 50 | 1012.6 |
| 20260508023028 | 11 | 110 | 0.0 | 1.6 | 0.00 | 0.00 | 0.00 | 51 | 1012.7 |
| 20260508021520 | 11 | 77 | 0.0 | 0.0 | 0.00 | 0.00 | 0.00 | 52 | 1012.6 |
| 20260508020020 | 10 | 93 | 0.0 | 0.0 | 0.00 | 0.00 | 0.00 | 55 | 1012.7 |
| 20260508014540 | 10 | 96 | 0.0 | 0.0 | 0.00 | 0.00 | 0.00 | 55 | 1012.5 |
| 20260508013020 | 9 | 97 | 0.0 | 0.0 | 0.00 | 0.00 | 0.00 | 57 | 1012.6 |
| 20260508011521 | 7 | 70 | 0.0 | 1.6 | 0.00 | 0.00 | 0.00 | 65 | 1012.2 |
| 20260508010025 | 8 | 93 | 0.0 | 0.0 | 0.00 | 0.00 | 0.00 | 60 | 1012.6 |
| 20260508004521 | 8 | 56 | 0.0 | 0.0 | 0.00 | 0.00 | 0.00 | 56 | 1013.1 |
| 20260508003034 | 8 | 56 | 0.0 | 0.0 | 0.00 | 0.00 | 0.00 | 56 | 1013.3 |
| 20260508001509 | 10 | 56 | 0.0 | 0.0 | 0.00 | 0.00 | 0.00 | 55 | 1013.2 |
| 20260508000011 | 10 | 67 | 0.0 | 0.0 | 0.00 | 0.00 | 0.00 | 51 | 1013.5 |
| 20260507234507 | 10 | 67 | 0.0 | 0.0 | 0.00 | 0.00 | 0.00 | 51 | 1013.3 |
| 20260507233005 | 10 | 77 | 0.0 | 0.0 | 0.00 | 0.00 | 0.00 | 53 | 1013.0 |
| 20260507231502 | 10 | 53 | 0.0 | 1.6 | 0.00 | 0.00 | 0.00 | 50 | 1013.1 |
| 20260507230002 | 10 | 48 | 0.0 | 0.0 | 0.00 | 0.00 | 0.00 | 50 | 1013.1 |
| 20260507224502 | 10 | 87 | 0.0 | 0.0 | 0.00 | 0.00 | 0.00 | 51 | 1012.9 |
| 20260507223001 | 10 | 86 | 0.0 | 0.0 | 0.00 | 0.00 | 0.00 | 51 | 1012.7 |
| 20260507221601 | 10 | 85 | 0.0 | 0.0 | 0.00 | 0.00 | 0.00 | 52 | 1012.7 |
| 20260507220101 | 10 | 79 | 0.0 | 0.0 | 0.00 | 0.00 | 0.00 | 53 | 1012.8 |
| 20260507214603 | 11 | 78 | 0.0 | 0.0 | 0.00 | 0.00 | 0.00 | 53 | 1013.0 |
| 20260507213054 | 11 | 78 | 0.0 | 0.0 | 0.00 | 0.00 | 0.00 | 50 | 1013.0 |
| 20260507211615 | 11 | 78 | 0.0 | 0.0 | 0.00 | 0.00 | 0.00 | 50 | 1013.1 |
| 20260507210049 | 12 | 46 | 0.0 | 0.0 | 0.00 | 0.00 | 0.00 | 48 | 1013.1 |
| 20260507204547 | 12 | 50 | 0.0 | 1.6 | 0.00 | 0.00 | 0.00 | 46 | 1013.1 |
| 20260507203044 | 12 | 37 | 0.0 | 0.0 | 0.00 | 0.00 | 0.00 | 46 | 1013.1 |
| 20260507201541 | 13 | 41 | 0.0 | 1.6 | 0.00 | 0.00 | 0.00 | 46 | 1013.0 |
| 20260507200039 | 13 | 53 | 0.0 | 1.6 | 0.00 | 0.00 | 0.00 | 46 | 1012.9 |
| 20260507194540 | 13 | 46 | 0.0 | 0.0 | 0.00 | 0.00 | 0.00 | 47 | 1012.8 |
| 20260507193036 | 13 | 60 | 0.0 | 4.8 | 0.00 | 0.00 | 0.00 | 46 | 1012.7 |
| 20260507191533 | 14 | 58 | 0.0 | 9.7 | 0.00 | 0.00 | 0.00 | 45 | 1012.5 |
| 20260507190036 | 14 | 30 | 1.6 | 9.7 | 0.00 | 0.00 | 0.00 | 45 | 1012.6 |
| 20260507184531 | 14 | 36 | 0.0 | 12.9 | 0.00 | 0.00 | 0.00 | 45 | 1012.6 |
| 20260507183031 | 15 | 37 | 0.0 | 8.0 | 0.00 | 0.00 | 0.00 | 45 | 1012.6 |
| 20260507181529 | 15 | 37 | 0.0 | 9.7 | 0.00 | 0.00 | 0.00 | 44 | 1012.5 |
| 20260507180028 | 15 | 33 | 0.0 | 9.7 | 0.00 | 0.00 | 0.00 | 44 | 1012.4 |
| 20260507174528 | 15 | 66 | 1.6 | 12.9 | 0.00 | 0.00 | 0.00 | 43 | 1012.5 |
| 20260507173031 | 16 | 21 | 0.0 | 8.0 | 0.00 | 0.00 | 0.00 | 43 | 1012.4 |
| 20260507171527 | 16 | 35 | 0.0 | 8.0 | 0.00 | 0.00 | 0.00 | 43 | 1012.4 |
| 20260507170026 | 16 | 42 | 0.0 | 3.2 | 0.00 | 0.00 | 0.00 | 43 | 1012.4 |
| 20260507164527 | 16 | 39 | 0.0 | 1.6 | 0.00 | 0.00 | 0.00 | 43 | 1012.4 |
| 20260507163026 | 17 | 41 | 0.0 | 0.0 | 0.00 | 0.00 | 0.00 | 43 | 1012.3 |
| 20260507161525 | 17 | 41 | 0.0 | 4.8 | 0.00 | 0.00 | 0.00 | 43 | 1012.1 |
| 20260507160021 | 18 | 43 | 0.0 | 1.6 | 0.00 | 0.00 | 0.00 | 42 | 1012.0 |
| 20260507154520 | 18 | 32 | 0.0 | 3.2 | 0.00 | 0.00 | 0.00 | 40 | 1011.7 |
| 20260507153025 | 19 | 37 | 0.0 | 3.2 | 0.00 | 0.00 | 0.00 | 39 | 1011.5 |
| 20260507151519 | 20 | 37 | 0.0 | 6.4 | 0.00 | 0.00 | 0.00 | 38 | 1011.4 |
| 20260507150019 | 20 | 16 | 0.0 | 1.6 | 0.00 | 0.00 | 0.00 | 38 | 1011.5 |
| 20260507144520 | 20 | 44 | 0.0 | 11.3 | 0.00 | 0.00 | 0.00 | 38 | 1011.4 |
| 20260507143018 | 20 | 359 | 1.6 | 8.0 | 0.00 | 0.00 | 0.00 | 37 | 1011.4 |
| 20260507141517 | 21 | 43 | 0.0 | 6.4 | 0.00 | 0.00 | 0.00 | 37 | 1011.3 |
| 20260507140025 | 21 | 30 | 0.0 | 6.4 | 0.00 | 0.00 | 0.00 | 36 | 1011.4 |
| 20260507134516 | 21 | 42 | 0.0 | 9.7 | 0.00 | 0.00 | 0.00 | 35 | 1011.5 |
| 20260507133015 | 21 | 54 | 1.6 | 11.3 | 0.00 | 0.00 | 0.00 | 35 | 1011.5 |
| 20260507131514 | 21 | 349 | 0.0 | 6.4 | 0.00 | 0.00 | 0.00 | 35 | 1011.5 |
| 20260507130014 | 21 | 54 | 1.6 | 11.3 | 0.00 | 0.00 | 0.00 | 37 | 1011.6 |
| 20260507124517 | 21 | 31 | 6.4 | 14.5 | 0.00 | 0.00 | 0.00 | 36 | 1011.7 |
| 20260507123021 | 21 | 39 | 1.6 | 16.1 | 0.00 | 0.00 | 0.00 | 35 | 1011.7 |
| 20260507121512 | 21 | 58 | 3.2 | 14.5 | 0.00 | 0.00 | 0.00 | 37 | 1011.6 |
| 20260507120012 | 21 | 62 | 3.2 | 12.9 | 0.00 | 0.00 | 0.00 | 38 | 1011.5 |
| 20260507114512 | 21 | 44 | 3.2 | 14.5 | 0.00 | 0.00 | 0.00 | 36 | 1011.7 |
| 20260507113011 | 21 | 8 | 0.0 | 8.0 | 0.00 | 0.00 | 0.00 | 37 | 1011.7 |
| 20260507111510 | 21 | 310 | 3.2 | 16.1 | 0.00 | 0.00 | 0.00 | 38 | 1011.7 |
| 20260507110012 | 21 | 290 | 0.0 | 11.3 | 0.00 | 0.00 | 0.00 | 39 | 1011.6 |
| 20260507104507 | 21 | 324 | 0.0 | 8.0 | 0.00 | 0.00 | 0.00 | 37 | 1011.6 |
| 20260507103009 | 21 | 314 | 1.6 | 9.7 | 0.00 | 0.00 | 0.00 | 40 | 1011.6 |
| 20260507101509 | 21 | 57 | 0.0 | 8.0 | 0.00 | 0.00 | 0.00 | 42 | 1011.5 |
| 20260507100008 | 21 | 33 | 1.6 | 16.1 | 0.00 | 0.00 | 0.00 | 42 | 1011.6 |
| 20260507094504 | 21 | 91 | 0.0 | 1.6 | 0.00 | 0.00 | 0.00 | 43 | 1011.5 |
| 20260507093003 | 20 | 56 | 1.6 | 19.3 | 0.00 | 0.00 | 0.00 | 41 | 1011.6 |
| 20260507091505 | 21 | 42 | 0.0 | 14.5 | 0.00 | 0.00 | 0.00 | 43 | 1011.5 |
| 20260507090113 | 21 | 314 | 1.6 | 9.7 | 0.00 | 0.00 | 0.00 | 45 | 1011.4 |
| 20260507084600 | 20 | 350 | 0.0 | 9.7 | 0.00 | 0.00 | 0.00 | 45 | 1011.5 |
| 20260507083102 | 20 | 28 | 1.6 | 17.7 | 0.00 | 0.00 | 0.00 | 47 | 1011.4 |
| 20260507081559 | 20 | 312 | 1.6 | 11.3 | 0.00 | 0.00 | 0.00 | 48 | 1011.5 |
| 20260507080054 | 20 | 66 | 1.6 | 11.3 | 0.00 | 0.00 | 0.00 | 49 | 1011.5 |
| 20260507074553 | 20 | 40 | 1.6 | 14.5 | 0.00 | 0.00 | 0.00 | 53 | 1011.5 |